Flock 4g-35

operational
NORAD ID: 62683 Int'l Des: 2025-009 Owner: PLAN Country: US Constellation: planet
LEOCIRCULARRETROGRADESSO

About Flock 4g-35

Description loading...

Live Position

Loading 3D Globe...

Upcoming Passes

Altitude History

Altitude vs Time

uPlot chart will show altitude changes over time

Two-Line Element Set

1 62683U 25009CC 25299.21546189 .00024523 00000-0 99034-3 0 9998
2 62683 97.4211 17.7347 0005867 73.9578 286.2305 15.24745178100848
Epoch: Oct 26, 2025 • Age: 9 hours

Current Status

Altitude 492.3 km
Velocity 7.62 km/s
Sub-Earth Point 6.85°N, 122.24°E
Launch Date Jan 14, 2025
Age 0.7 years
Type other

Technical Details

Classification Payload
Mass 5.70 kg
Dry Mass 5.70 kg
Total Mass 5.70 kg
Length 0.30 m
Diameter 0.10 m
Span 0.30 m
Shape Box+2 pan
Manufacturer PLAN
Bus Type Cubesat 3U
Phase Status In Orbit
Owner/State PLAN/US

Large Constellations

Loading constellations...